Location: Newark
(53.7833°N, 9.4833°E)
Time: 03:18:26
(UTC+00:00)

Envisat - Pass Details

Date: 10 December 2019
Orbit: 764 x 766 km, 98.1° (Epoch: 19 January)

Event Time Altitude Azimuth Distance (km) Brightness Sun altitude
Rises 17:37:39 0° 181° (S) 3,223 6.4 -21.6°
Reaches altitude 10° 17:40:02 10° 187° (S) 2,302 5.7 -22.0°
Maximum altitude 17:44:55 48° 261° (W) 1,006 4.0 -22.7°
Drops below altitude 10° 17:49:52 10° 336° (NNW) 2,318 5.7 -23.4°
Sets 17:52:16 0° 342° (NNW) 3,249 6.4 -23.8°
